User: anonymous
Location: Unspecified
(0.0000°N, 0.0000°E)
Time: 11:25:55
(UTC+02:00)
Language:

ARIANE 5 DEB (SYLDA) - Orbit

View from above orbital plane
View from above orbital plane
View from above satellite
View from above satellite

Ground track
Ground track

The orbit data is extracted from the following two-line orbital elements,

1 32770U 08018D   14209.57690418  .02395957 -14464-5  52227-2 0  7995
2 32770 001.4424 319.7934 3988249 270.1734 152.8101 07.66506686 73377
Epoch (UTC): 28 July 2014 13:50:44
Eccentricity: 0.3988249
inclination: 1.4424°
perigee height: 154 km
apogee height: 8821 km
right ascension of ascending node: 319.7934°
argument of perigee: 270.1734°
revolutions per day: 7.66506686
mean anomaly at epoch: 152.8101°
orbit number at epoch: 7337

The dashed part of the orbit path shows where the satellite is in the earth's shadow,  

DLR